TimeCAT,TemperatureF,Dew PointF,Humidity,Sea Level PressureIn,VisibilityMPH,Wind Direction,Wind SpeedMPH,Gust SpeedMPH,PrecipitationIn,Events,Conditions,WindDirDegrees,DateUTC
12:00 AM,68.0,60.8,78,30.04,-9999.0,Variable,2.3,-,N/A,,Clear,0,2013-01-25 22:00:00
1:00 AM,68.0,59.0,73,30.04,-9999.0,Variable,1.2,-,N/A,,Clear,0,2013-01-25 23:00:00
3:00 AM,64.4,57.2,77,30.01,-9999.0,SE,6.9,-,N/A,,Clear,140,2013-01-26 01:00:00
4:00 AM,64.4,57.2,77,30.01,-9999.0,ESE,5.8,-,N/A,,Clear,120,2013-01-26 02:00:00
5:00 AM,64.4,57.2,77,30.04,-9999.0,East,9.2,-,N/A,,Clear,90,2013-01-26 03:00:00
6:00 AM,66.2,57.2,73,30.06,-9999.0,SE,4.6,-,N/A,,Clear,130,2013-01-26 04:00:00
7:00 AM,66.2,57.2,73,30.06,-9999.0,East,10.4,-,N/A,,Clear,100,2013-01-26 05:00:00
8:00 AM,71.6,62.6,73,30.09,6.2,East,18.4,-,N/A,,Mostly Cloudy,90,2013-01-26 06:00:00
9:00 AM,75.2,62.6,65,30.12,6.2,East,20.7,-,N/A,,Mostly Cloudy,80,2013-01-26 07:00:00
10:00 AM,77.0,62.6,61,30.09,6.2,East,17.3,-,N/A,,Mostly Cloudy,80,2013-01-26 08:00:00
11:00 AM,78.8,60.8,54,30.09,6.2,ENE,15.0,-,N/A,,Mostly Cloudy,70,2013-01-26 09:00:00
12:00 PM,80.6,60.8,51,30.09,6.2,ESE,10.4,-,N/A,,Scattered Clouds,120,2013-01-26 10:00:00
1:00 PM,82.4,60.8,48,30.06,6.2,ENE,17.3,-,N/A,,Partly Cloudy,70,2013-01-26 11:00:00
2:00 PM,84.2,62.6,48,30.04,6.2,East,11.5,-,N/A,,Partly Cloudy,100,2013-01-26 12:00:00
3:00 PM,84.2,62.6,48,30.01,6.2,East,15.0,-,N/A,,Partly Cloudy,90,2013-01-26 13:00:00
4:00 PM,86.0,60.8,43,30.01,6.2,East,19.6,-,N/A,,Partly Cloudy,100,2013-01-26 14:00:00
5:00 PM,86.0,60.8,43,29.98,6.2,East,9.2,-,N/A,,Partly Cloudy,90,2013-01-26 15:00:00
6:00 PM,84.2,60.8,45,30.01,6.2,East,13.8,-,N/A,,Partly Cloudy,90,2013-01-26 16:00:00
7:00 PM,84.2,60.8,45,30.04,-9999.0,SE,10.4,-,N/A,,Clear,130,2013-01-26 17:00:00
8:00 PM,77.0,59.0,54,30.06,-9999.0,ESE,6.9,-,N/A,,Clear,120,2013-01-26 18:00:00
9:00 PM,75.2,59.0,57,30.06,-9999.0,SE,5.8,-,N/A,,Clear,130,2013-01-26 19:00:00
10:00 PM,71.6,59.0,64,30.09,-9999.0,ESE,4.6,-,N/A,,Clear,120,2013-01-26 20:00:00
11:00 PM,71.6,60.8,69,30.12,-9999.0,ESE,4.6,-,N/A,,Clear,110,2013-01-26 21:00:00